OK1FET-4 Weather Reports


time (UTC)temp
C
wind
direction
speed
KPH
gust
KPH
rain 1hr
cm
rain 24hr
cm
rain mn
cm
humidity
%
barometer
mb
20260507162623 13 277 22.5 29.0 0.00 0.00 0.00 65 1013.8
20260507162123 13 273 27.4 35.4 0.00 0.00 0.00 64 1013.6
20260507161623 13 280 22.5 35.4 0.00 0.00 0.00 63 1013.5
20260507161122 13 280 27.4 33.8 0.00 0.00 0.00 64 1013.5
20260507160622 14 280 24.1 30.6 0.00 0.00 0.00 64 1013.3
20260507160121 14 299 17.7 29.0 0.00 0.00 0.00 64 1013.6
20260507155621 14 303 16.1 22.5 0.00 0.00 0.00 63 1013.5
20260507155120 14 289 19.3 27.4 0.00 0.00 0.00 63 1013.4
20260507154620 14 282 19.3 24.1 0.00 0.00 0.00 62 1013.6
20260507154119 14 277 19.3 25.7 0.00 0.00 0.00 62 1013.4
20260507153619 15 289 22.5 27.4 0.00 0.00 0.00 61 1013.4
20260507153119 15 294 24.1 30.6 0.00 0.00 0.00 61 1013.1
20260507152618 15 278 27.4 32.2 0.00 0.00 0.00 60 1013.2
20260507152118 15 279 30.6 33.8 0.00 0.00 0.00 61 1013.2
20260507151617 15 296 17.7 25.7 0.00 0.00 0.00 61 1013.3
20260507151117 15 273 25.7 32.2 0.00 0.00 0.00 62 1013.4
20260507150616 15 280 24.1 32.2 0.00 0.00 0.00 60 1013.2
20260507150115 16 277 27.4 32.2 0.00 0.00 0.00 60 1013.2
20260507145615 16 273 29.0 35.4 0.00 0.00 0.00 59 1013.1
20260507145114 15 282 29.0 38.6 0.00 0.00 0.00 59 1013.0
20260507144614 16 289 25.7 35.4 0.00 0.00 0.00 59 1012.6
20260507144113 16 277 24.1 33.8 0.00 0.00 0.00 59 1013.0
20260507143613 16 279 29.0 33.8 0.00 0.00 0.00 55 1013.1
20260507143112 17 284 27.4 33.8 0.00 0.00 0.00 53 1012.9
20260507142611 18 293 22.5 32.2 0.00 0.00 0.00 50 1012.2
20260507142110 18 265 24.1 35.4 0.00 0.00 0.00 50 1012.8
20260507141610 18 289 12.9 19.3 0.00 0.00 0.00 53 1012.8
20260507141109 18 287 17.7 25.7 0.00 0.00 0.00 52 1012.9
20260507140608 18 280 27.4 33.8 0.00 0.00 0.00 51 1012.9
20260507140107 19 282 20.9 29.0 0.00 0.00 0.00 50 1012.6
20260507135606 18 280 19.3 24.1 0.00 0.00 0.00 51 1012.9
20260507135106 18 275 16.1 24.1 0.00 0.00 0.00 50 1012.8
20260507134605 18 273 19.3 24.1 0.00 0.00 0.00 50 1012.9
20260507134104 18 289 16.1 24.1 0.00 0.00 0.00 49 1012.9
20260507133603 18 280 16.1 30.6 0.00 0.00 0.00 52 1013.0
20260507133102 18 269 14.5 25.7 0.00 0.00 0.00 53 1013.1
20260507132602 17 267 14.5 19.3 0.00 0.00 0.00 54 1012.9
20260507132101 17 289 14.5 24.1 0.00 0.00 0.00 54 1013.0
20260507131600 17 286 19.3 29.0 0.00 0.00 0.00 54 1013.1
20260507131100 17 255 12.9 20.9 0.00 0.00 0.00 55 1013.1
20260507130559 17 270 12.9 19.3 0.00 0.00 0.00 55 1013.2
20260507130058 16 249 12.9 20.9 0.00 0.00 0.00 57 1013.2
20260507125558 16 279 17.7 22.5 0.00 0.00 0.00 55 1013.1
20260507125057 16 273 12.9 19.3 0.00 0.00 0.00 56 1012.8
20260507124556 16 286 17.7 20.9 0.00 0.00 0.00 55 1012.9
20260507124056 17 293 16.1 20.9 0.00 0.00 0.00 56 1012.9
20260507123555 17 268 20.9 27.4 0.00 0.00 0.00 54 1012.9
20260507123054 17 270 20.9 30.6 0.00 0.00 0.00 54 1012.8
20260507122553 17 282 16.1 22.5 0.00 0.00 0.00 53 1012.8
20260507122053 17 263 12.9 16.1 0.00 0.00 0.00 56 1013.1
20260507121552 16 277 12.9 19.3 0.00 0.00 0.00 58 1013.1
20260507121052 16 277 16.1 20.9 0.00 0.00 0.00 57 1013.0
20260507120551 16 262 16.1 22.5 0.00 0.00 0.00 59 1012.9
20260507120050 15 261 14.5 19.3 0.00 0.00 0.00 58 1013.0
20260507115550 15 267 12.9 17.7 0.00 0.00 0.00 60 1013.1
20260507115049 15 241 14.5 20.9 0.00 0.00 0.00 61 1013.1
20260507114549 15 240 14.5 22.5 0.00 0.00 0.00 61 1013.0
20260507114048 14 260 16.1 24.1 0.00 0.00 0.00 60 1013.1
20260507113548 15 272 11.3 20.9 0.00 0.00 0.00 60 1013.1
20260507113047 15 277 12.9 22.5 0.00 0.00 0.00 62 1013.1
20260507112547 15 240 16.1 19.3 0.00 0.00 0.00 61 1013.0
20260507112046 15 251 16.1 22.5 0.00 0.00 0.00 60 1013.1
20260507111545 15 270 17.7 27.4 0.00 0.00 0.00 59 1012.8
20260507111045 15 275 17.7 22.5 0.00 0.00 0.00 58 1012.9
20260507110544 16 258 14.5 27.4 0.00 0.00 0.00 57 1012.9
20260507110044 16 272 12.9 22.5 0.00 0.00 0.00 58 1012.9
20260507105543 15 256 11.3 17.7 0.00 0.00 0.00 59 1012.8
20260507105042 15 250 9.7 16.1 0.00 0.00 0.00 62 1012.8
20260507104542 15 246 9.7 19.3 0.00 0.00 0.00 62 1012.7
20260507104041 16 275 14.5 24.1 0.00 0.00 0.00 58 1012.6
20260507103541 16 279 22.5 30.6 0.00 0.00 0.00 55 1012.6
20260507103040 17 270 19.3 33.8 0.00 0.00 0.00 57 1012.5
20260507102539 16 263 16.1 25.7 0.00 0.00 0.00 59 1012.7
20260507102039 15 258 19.3 25.7 0.00 0.00 0.00 58 1012.7
20260507101538 15 268 22.5 32.2 0.00 0.00 0.00 59 1012.6
20260507101037 16 270 19.3 30.6 0.00 0.00 0.00 60 1012.5
20260507100537 16 280 22.5 30.6 0.00 0.00 0.00 60 1012.5
20260507100036 16 282 22.5 27.4 0.00 0.00 0.00 61 1012.3
20260507095536 15 277 17.7 27.4 0.00 0.00 0.00 61 1012.3
20260507095035 14 265 16.1 22.5 0.00 0.00 0.00 64 1012.6
20260507094535 14 267 19.3 27.4 0.00 0.00 0.00 67 1012.4
20260507094034 14 263 19.3 29.0 0.00 0.00 0.00 64 1012.3
20260507093534 14 270 19.3 29.0 0.00 0.00 0.00 63 1012.2
20260507093033 14 270 20.9 30.6 0.00 0.00 0.00 67 1012.3
20260507092533 14 273 24.1 32.2 0.00 0.00 0.00 64 1011.9
20260507092032 15 270 17.7 24.1 0.00 0.00 0.00 66 1012.1
20260507091532 15 293 19.3 27.4 0.00 0.00 0.00 65 1012.0
20260507091031 15 270 22.5 27.4 0.00 0.00 0.00 65 1012.0
20260507090531 15 267 12.9 16.1 0.00 0.00 0.00 69 1012.0
20260507090030 14 268 16.1 22.5 0.00 0.00 0.00 67 1012.0
20260507085530 13 261 16.1 22.5 0.00 0.00 0.00 69 1012.1
20260507085029 13 263 14.5 27.4 0.00 0.00 0.00 70 1011.9
20260507084529 13 256 16.1 25.7 0.00 0.00 0.00 72 1011.9
20260507084029 14 273 19.3 27.4 0.00 0.00 0.00 69 1011.9
20260507083528 14 273 14.5 20.9 0.00 0.00 0.00 68 1011.7
20260507083028 15 282 14.5 22.5 0.00 0.00 0.00 70 1011.9
20260507082527 15 282 14.5 17.7 0.00 0.00 0.00 69 1012.0
20260507082026 15 275 20.9 24.1 0.00 0.00 0.00 68 1011.9
20260507081526 15 278 19.3 27.4 0.00 0.00 0.00 70 1011.7
20260507081025 13 275 19.3 24.1 0.00 0.00 0.00 71 1011.6
20260507080525 13 279 19.3 29.0 0.00 0.00 0.00 77 1011.7
20260507080025 13 284 22.5 32.2 0.00 0.00 0.00 74 1011.5
20260507075524 13 277 20.9 27.4 0.00 0.00 0.00 73 1011.6
20260507075024 13 277 19.3 27.4 0.00 0.00 0.00 80 1011.6
20260507074523 13 278 22.5 32.2 0.00 0.00 0.00 78 1011.5
20260507074023 12 275 16.1 22.5 0.00 0.00 0.00 89 1011.5
20260507073523 12 273 20.9 27.4 0.00 0.00 0.00 87 1011.5
20260507073022 12 298 17.7 25.7 0.00 0.00 0.00 89 1011.4
20260507072522 12 268 16.1 24.1 0.00 0.00 0.00 94 1011.4
20260507072021 12 272 12.9 19.3 0.00 0.00 0.00 95 1011.4
20260507071521 12 273 17.7 22.5 0.00 0.00 0.00 95 1011.3
20260507071021 12 275 16.1 20.9 0.00 0.00 0.00 96 1011.3
20260507070520 12 272 14.5 19.3 0.00 0.00 0.00 95 1011.2
20260507070020 12 272 9.7 19.3 0.00 0.00 0.00 96 1011.1
20260507065520 12 246 6.4 9.7 0.00 0.00 0.00 96 1011.1
20260507065019 12 244 6.4 12.9 0.00 0.00 0.00 96 1011.2
20260507064519 12 256 11.3 16.1 0.00 0.00 0.00 96 1011.1
20260507064019 12 258 12.9 17.7 0.00 0.00 0.00 96 1011.2
20260507063518 12 246 9.7 17.7 0.00 0.00 0.00 96 1011.2
20260507063018 12 242 8.0 12.9 0.00 0.00 0.00 96 1011.1
20260507062518 12 258 11.3 17.7 0.00 0.00 0.00 96 1011.1
20260507062017 12 266 11.3 16.1 0.00 0.00 0.00 96 1010.9
20260507061517 12 251 14.5 22.5 0.00 0.00 0.00 96 1010.9
20260507061017 12 218 9.7 19.3 0.00 0.00 0.00 96 1010.9
20260507060516 12 237 14.5 19.3 0.00 0.00 0.00 96 1010.7
20260507060016 12 240 11.3 19.3 0.00 0.00 0.00 96 1010.6
20260507055515 12 249 11.3 14.5 0.00 0.00 0.00 96 1010.6
20260507055015 12 232 11.3 20.9 0.00 0.00 0.00 96 1010.5
20260507054515 12 235 11.3 17.7 0.00 0.00 0.00 96 1010.5
20260507054014 12 223 8.0 14.5 0.00 0.00 0.00 96 1010.3
20260507053514 12 204 8.0 12.9 0.00 0.00 0.00 97 1010.4
20260507053013 12 206 6.4 14.5 0.00 0.00 0.00 97 1010.5
20260507052513 11 192 4.8 11.3 0.00 0.00 0.00 97 1010.4
20260507052013 11 204 8.0 16.1 0.00 0.00 0.00 98 1010.4
20260507051512 11 183 6.4 9.7 0.00 0.00 0.00 98 1010.3
20260507051012 11 187 4.8 6.4 0.00 0.00 0.00 98 1010.3
20260507050512 10 208 4.8 9.7 0.00 0.00 0.00 98 1010.3
20260507050012 10 229 6.4 9.7 0.00 0.00 0.00 98 1010.2
20260507045511 10 237 6.4 11.3 0.00 0.00 0.00 98 1010.2
20260507045011 10 227 8.0 11.3 0.00 0.00 0.00 98 1010.1
20260507044511 10 215 6.4 9.7 0.00 0.00 0.00 98 1010.0
20260507044011 10 261 8.0 12.9 0.00 0.00 0.00 98 1009.9
20260507043511 10 242 6.4 12.9 0.00 0.00 0.00 98 1009.8
20260507043010 10 242 6.4 9.7 0.00 0.00 0.00 98 1009.8
20260507042510 10 257 6.4 9.7 0.00 0.00 0.00 98 1009.8
20260507042010 10 248 4.8 8.0 0.00 0.00 0.00 98 1009.7
20260507041510 10 256 6.4 9.7 0.00 0.00 0.00 98 1009.7
20260507041010 10 241 6.4 9.7 0.00 0.00 0.00 98 1009.6
20260507040510 10 251 6.4 9.7 0.00 0.00 0.00 98 1009.6
20260507040010 9 244 6.4 9.7 0.00 0.00 0.00 98 1009.6
20260507035510 9 257 8.0 9.7 0.00 0.00 0.00 98 1009.5
20260507035010 9 287 8.0 11.3 0.00 0.00 0.00 98 1009.4
20260507034510 9 270 8.0 11.3 0.00 0.00 0.00 98 1009.2
20260507034010 9 282 14.5 17.7 0.00 0.00 0.00 98 1009.2
20260507033510 9 268 11.3 14.5 0.00 0.00 0.00 98 1009.1
20260507033009 9 265 14.5 20.9 0.00 0.00 0.00 98 1009.0
20260507032509 9 270 11.3 14.5 0.00 0.00 0.00 98 1009.2
20260507032009 9 263 8.0 14.5 0.00 0.00 0.00 98 1009.1
20260507031509 9 246 8.0 12.9 0.00 0.00 0.00 98 1009.2
20260507031009 9 251 9.7 16.1 0.00 0.00 0.00 98 1009.1
20260507030509 10 238 12.9 16.1 0.00 0.00 0.00 98 1009.1
20260507030009 10 253 11.3 14.5 0.00 0.00 0.00 98 1009.2
20260507025509 10 228 9.7 14.5 0.00 0.00 0.00 98 1009.2
20260507025009 10 232 9.7 12.9 0.00 0.00 0.00 98 1009.1
20260507024509 10 249 11.3 16.1 0.00 0.00 0.00 98 1009.1
20260507024009 10 251 11.3 14.5 0.00 0.00 0.00 98 1009.1
20260507023509 10 254 12.9 16.1 0.00 0.00 0.00 98 1009.1
20260507023009 10 261 16.1 20.9 0.00 0.00 0.00 98 1008.9
20260507022509 10 265 14.5 17.7 0.00 0.00 0.00 98 1008.9
20260507022009 10 267 12.9 16.1 0.00 0.00 0.00 98 1008.8
20260507021508 10 263 14.5 17.7 0.00 0.00 0.00 98 1008.8
20260507021008 10 267 14.5 17.7 0.00 0.00 0.00 98 1008.8
20260507020508 10 267 14.5 17.7 0.00 0.00 0.00 98 1008.8
20260507020008 10 277 12.9 17.7 0.00 0.00 0.00 98 1008.9
20260507015508 10 277 11.3 14.5 0.00 0.00 0.00 98 1008.9
20260507015008 10 270 14.5 16.1 0.00 0.00 0.00 98 1008.9
20260507014508 10 261 16.1 19.3 0.00 0.00 0.00 98 1008.9
20260507014007 10 263 16.1 19.3 0.00 0.00 0.00 98 1008.8
20260507013507 10 263 14.5 19.3 0.00 0.00 0.00 98 1008.8
20260507013007 11 255 16.1 19.3 0.00 0.00 0.00 98 1008.8
20260507012507 11 267 14.5 19.3 0.00 0.00 0.00 98 1008.7
20260507012007 11 260 16.1 20.9 0.00 0.00 0.00 98 1008.5
20260507011507 11 258 12.9 24.1 0.00 0.00 0.00 98 1008.5
20260507011006 10 261 12.9 17.7 0.00 0.00 0.00 98 1008.5
20260507010506 10 248 8.0 11.3 0.00 0.00 0.00 98 1008.5
20260507010006 11 252 8.0 11.3 0.00 0.00 0.00 98 1008.4
20260507005506 11 274 6.4 12.9 0.00 0.00 0.00 98 1008.4
20260507005006 11 251 4.8 6.4 0.00 0.00 0.00 98 1008.3
20260507004506 11 251 8.0 11.3 0.00 0.00 0.00 98 1008.3
20260507004006 11 242 6.4 9.7 0.00 0.00 0.00 98 1008.3
20260507003505 11 242 9.7 12.9 0.00 0.00 0.00 98 1008.3
20260507003005 11 222 6.4 11.3 0.00 0.00 0.00 98 1008.2
20260507002505 11 241 9.7 14.5 0.00 0.00 0.00 98 1008.2
20260507002005 11 256 14.5 16.1 0.00 0.00 0.00 98 1008.3
20260507001505 11 256 16.1 19.3 0.00 0.00 0.00 98 1008.2
20260507001004 11 253 14.5 16.1 0.00 0.00 0.00 98 1008.1
20260507000505 11 255 9.7 12.9 0.00 0.00 0.00 98 1008.0
20260507000004 11 261 6.4 9.7 0.00 0.00 0.00 98 1008.1
20260506235504 11 253 8.0 11.3 0.00 0.00 0.00 98 1008.0
20260506235004 11 270 6.4 8.0 0.00 0.00 0.00 98 1008.0
20260506234503 11 262 6.4 8.0 0.00 0.00 0.00 98 1007.9
20260506234003 11 239 4.8 8.0 0.00 0.00 0.00 98 1007.7
20260506233503 11 212 4.8 6.4 0.00 0.00 0.00 98 1007.7
20260506233003 11 232 6.4 6.4 0.00 0.00 0.00 98 1007.7
20260506232502 11 145 3.2 4.8 0.00 0.00 0.00 98 1007.7
20260506232002 11 147 1.6 3.2 0.00 0.00 0.00 98 1007.7
20260506231502 11 234 3.2 4.8 0.00 0.00 0.00 98 1007.9
20260506231002 11 185 1.6 3.2 0.00 0.00 0.00 98 1007.9
20260506230501 11 232 3.2 4.8 0.00 0.00 0.00 98 1007.9
20260506230001 11 270 4.8 4.8 0.00 0.00 0.00 97 1007.7
20260506225501 11 269 3.2 4.8 0.00 0.00 0.00 97 1007.7
20260506225001 11 171 1.6 4.8 0.00 0.00 0.00 97 1007.6
20260506224500 11 142 3.2 4.8 0.00 0.00 0.00 97 1007.5
20260506224000 12 231 4.8 9.7 0.00 0.00 0.00 97 1007.6
20260506223500 12 239 8.0 14.5 0.00 0.00 0.00 97 1007.7
20260506223000 12 243 9.7 17.7 0.00 0.00 0.00 97 1007.8
20260506222500 11 246 9.7 12.9 0.00 0.00 0.00 97 1007.7
20260506222459 11 246 9.7 12.9 0.00 0.00 0.00 97 1007.7
20260506221959 11 260 11.3 16.1 0.00 0.00 0.00 97 1007.8
20260506221459 11 263 11.3 16.1 0.00 0.00 0.00 97 1007.7
20260506220959 12 260 11.3 16.1 0.00 0.00 0.00 97 1007.6
20260506220458 12 270 9.7 12.9 0.00 0.00 0.00 97 1007.7
20260506215958 12 248 8.0 9.7 0.00 0.00 0.00 97 1007.6
20260506215458 12 215 3.2 4.8 0.00 0.00 0.00 97 1007.5
20260506214958 12 168 1.6 3.2 0.00 0.00 0.00 97 1007.5
20260506214457 12 275 1.6 3.2 0.00 0.00 0.00 97 1007.4
20260506213957 12 285 1.6 3.2 0.00 0.00 0.00 97 1007.4
20260506213457 12 188 1.6 3.2 0.00 0.00 0.00 97 1007.4
20260506212957 12 171 1.6 4.8 0.00 0.00 0.00 97 1007.3
20260506212456 12 151 1.6 8.0 0.00 0.00 0.00 97 1007.2
20260506211956 12 137 1.6 3.2 0.00 0.00 0.00 96 1007.1
20260506211456 12 159 3.2 8.0 0.00 0.00 0.00 96 1007.1
20260506210955 12 136 3.2 8.0 0.00 0.00 0.00 96 1007.1
20260506210455 12 135 3.2 8.0 0.00 0.00 0.00 96 1007.1
20260506205955 12 132 3.2 6.4 0.00 0.00 0.00 96 1007.1
20260506205455 12 138 4.8 6.4 0.00 0.00 0.00 95 1007.2
20260506204954 12 135 4.8 6.4 0.00 0.00 0.00 95 1007.3
20260506204454 12 135 4.8 6.4 0.00 0.00 0.00 94 1007.2
20260506203954 12 135 4.8 8.0 0.00 0.00 0.00 94 1007.3
20260506203453 12 144 4.8 6.4 0.00 0.00 0.00 94 1007.4
20260506202953 12 191 3.2 4.8 0.00 0.00 0.00 93 1007.6
20260506202453 12 255 11.3 17.7 0.00 0.00 0.00 93 1007.8
20260506201953 12 277 9.7 14.5 0.00 0.00 0.00 92 1007.7
20260506201452 12 284 11.3 14.5 0.00 0.00 0.00 91 1007.8
20260506200952 13 246 9.7 14.5 0.00 0.00 0.00 89 1007.7
20260506200451 13 270 14.5 24.1 0.00 0.00 0.00 87 1007.5
20260506195951 13 237 6.4 9.7 0.00 0.00 0.00 84 1007.2
20260506195451 13 233 3.2 6.4 0.00 0.00 0.00 85 1006.8
20260506194950 13 336 4.8 8.0 0.00 0.00 0.00 84 1006.6
20260506194450 13 59 3.2 8.0 0.00 0.00 0.00 83 1006.3
20260506193949 13 75 3.2 6.4 0.00 0.00 0.00 84 1006.0
20260506193456 13 19 3.2 4.8 0.00 0.00 0.00 84 1006.2
20260506193449 13 10 4.8 8.0 0.00 0.00 0.00 83 1006.1
20260506192949 13 19 3.2 4.8 0.00 0.00 0.00 84 1006.2
20260506192448 13 315 8.0 9.7 0.00 0.00 0.00 85 1006.3
20260506191948 13 318 4.8 8.0 0.00 0.00 0.00 84 1006.2
20260506191447 13 315 6.4 9.7 0.00 0.00 0.00 84 1006.2
20260506190947 13 107 3.2 8.0 0.00 0.00 0.00 84 1006.1
20260506190446 13 125 6.4 8.0 0.00 0.00 0.00 84 1005.9
20260506185946 13 111 4.8 8.0 0.00 0.00 0.00 84 1005.7
20260506185446 13 78 6.4 8.0 0.00 0.00 0.00 85 1005.6
20260506184945 13 31 3.2 6.4 0.00 0.00 0.00 86 1005.6
20260506184445 13 282 6.4 9.7 0.00 0.00 0.00 87 1005.7
20260506183944 13 270 9.7 11.3 0.00 0.00 0.00 88 1005.7
20260506183444 13 270 8.0 9.7 0.00 0.00 0.00 87 1005.7
20260506182944 13 251 8.0 9.7 0.00 0.00 0.00 85 1005.5
20260506182443 14 258 4.8 6.4 0.00 0.00 0.00 80 1005.3
20260506181943 14 218 1.6 4.8 0.00 0.00 0.00 78 1005.1
20260506181442 14 89 3.2 4.8 0.00 0.00 0.00 78 1005.1
20260506180942 14 132 1.6 3.2 0.00 0.00 0.00 77 1005.1
20260506180441 14 102 1.6 4.8 0.00 0.00 0.00 78 1005.0
20260506175941 15 92 3.2 4.8 0.00 0.00 0.00 78 1005.0
20260506175441 15 102 3.2 4.8 0.00 0.00 0.00 78 1004.9
20260506174940 15 83 3.2 6.4 0.00 0.00 0.00 78 1005.0
20260506174439 15 66 1.6 4.8 0.00 0.00 0.00 78 1004.9
20260506173939 15 346 1.6 4.8 0.00 0.00 0.00 79 1005.0
20260506173438 15 9 1.6 4.8 0.00 0.00 0.00 78 1005.1
20260506172938 15 357 3.2 4.8 0.00 0.00 0.00 77 1005.0
20260506172437 15 24 1.6 3.2 0.00 0.00 0.00 77 1005.0
20260506171937 16 26 3.2 4.8 0.00 0.00 0.00 76 1004.9
20260506171436 16 55 3.2 4.8 0.00 0.00 0.00 75 1004.9
20260506170935 17 66 1.6 4.8 0.00 0.00 0.00 74 1004.9
20260506170435 17 83 1.6 3.2 0.00 0.00 0.00 73 1004.9
20260506165934 16 34 1.6 3.2 0.00 0.00 0.00 74 1004.7
20260506165434 15 31 3.2 4.8 0.00 0.00 0.00 75 1004.7
20260506164933 15 64 4.8 4.8 0.00 0.00 0.00 77 1004.8
20260506164433 15 73 4.8 6.4 0.00 0.00 0.00 77 1004.8
20260506163932 15 38 3.2 4.8 0.00 0.00 0.00 77 1004.9
20260506163432 15 48 3.2 4.8 0.00 0.00 0.00 77 1004.9